Cut Bank, MT

10:09 PM MST on November 19, 2019 (GMT -0700)
Cut Bank Municipal

Weather History for KCTB - October, 2019

Change the Weather History Date:

Monday, October 21, 2019

  Actual Average Record
Temperature  
Mean Temperature 38 °F 41 °F  
Max Temperature 48 °F 53 °F 76 °F (1927)
Min Temperature 29 °F 29 °F 10 °F (1951)
Degree Days  
Heating Degree Days 26 24  
Month to date heating degree days 618 425  
Since 1 July heating degree days 1142 962  
Cooling Degree Days 0 0  
Month to date cooling degree days 0 0  
Year to date cooling degree days 106 161  
Moisture  
Dew Point 25 °F    
Average Humidity 59    
Maximum Humidity 82    
Minimum Humidity 37    
Precipitation  
Precipitation 0.00 in 0.01 in 0.34 in (2014)
Month to date precipitation 0.14 0.34  
Year to date precipitation 10.33 10.22  
Snow  
Snow - - - ()
Snow Depth 0.00 in    
Sea Level Pressure  
Sea Level Pressure 30.01 in    
Wind  
Wind Speed 12 mph ()    
Max Wind Speed 32 mph    
Max Gust Speed 39 mph    
Visibility 10.0 miles    
Events      
T = Trace of Precipitation, MM = Missing Value Source: Averaged Metar Reports

Daily Weather History Graph

Daily Weather History Graph

Search for Another Location

Airport or City:

Astronomy

Oct. 21, 2019 Rise Set
Actual Time 7:58 AM MDT 6:28 PM MDT
Civil Twilight 7:26 AM MDT 7:00 PM MDT
Nautical Twilight 6:49 AM MDT 7:37 PM MDT
Astronomical Twilight 6:13 AM MDT 8:13 PM MDT
Moon No Moon Rise 3:36 PM MDT (10/21)
Length of Visible Light 11h 34m
Length of Day
10h 30m
Waning Gibbous, 47% of the Moon is Illuminated
Oct 21
Waning Gibbous
Oct 27
New
Nov 4
First Quarter
Nov 12
Full
Nov 19
Last Quarter

Hourly Weather History & Observations

Time (MDT) Temp. Windchill Dew Point Humidity Pressure Visibility Wind Dir Wind Speed Gust Speed Precip Events Conditions
12:56 AM 33.1 °F 24.9 °F 23.0 °F 66% 29.89 in 10.0 mi WSW 10.4 mph - N/A   Mostly Cloudy
1:56 AM 34.0 °F 28.0 °F 24.1 °F 67% 29.88 in 10.0 mi WSW 6.9 mph - N/A   Overcast
2:56 AM 35.1 °F 30.1 °F 24.1 °F 64% 29.89 in 10.0 mi West 5.8 mph - N/A   Overcast
3:56 AM 36.0 °F 28.0 °F 26.1 °F 67% 29.89 in 10.0 mi WNW 11.5 mph - N/A   Overcast
4:56 AM 36.0 °F 30.3 °F 27.0 °F 70% 29.93 in 10.0 mi West 6.9 mph - N/A   Overcast
5:56 AM 34.0 °F 29.8 °F 27.0 °F 75% 29.96 in 10.0 mi WNW 4.6 mph - N/A   Overcast
6:56 AM 30.0 °F 22.4 °F 25.0 °F 82% 30.00 in 10.0 mi West 8.1 mph - N/A   Clear
7:56 AM 30.9 °F 24.3 °F 25.0 °F 79% 30.01 in 10.0 mi West 6.9 mph - N/A   Overcast
8:56 AM 36.0 °F 28.0 °F 27.0 °F 70% 30.01 in 10.0 mi West 11.5 mph - N/A   Overcast
9:56 AM 37.9 °F 30.5 °F 26.1 °F 62% 30.04 in 10.0 mi West 11.5 mph - N/A   Overcast
10:56 AM 43.0 °F 35.4 °F 24.1 °F 47% 30.04 in 10.0 mi West 16.1 mph - N/A   Clear
11:56 AM 46.0 °F 39.0 °F 21.9 °F 39% 30.03 in 10.0 mi West 17.3 mph - N/A   Clear
12:56 PM 46.9 °F - 21.9 °F 37% 30.03 in 10.0 mi WSW 19.6 mph 31.1 mph N/A   Partly Cloudy
1:56 PM 46.0 °F 37.0 °F 23.0 °F 40% 30.04 in 10.0 mi WSW 27.6 mph 32.2 mph N/A   Clear
2:56 PM 45.0 °F 35.2 °F 23.0 °F 42% 30.04 in 10.0 mi WSW 29.9 mph 38.0 mph N/A   Clear
3:56 PM 44.1 °F 35.0 °F 24.1 °F 45% 30.04 in 10.0 mi West 24.2 mph 34.5 mph N/A   Clear
4:56 PM 44.1 °F 35.7 °F 23.0 °F 43% 30.06 in 10.0 mi West 20.7 mph 28.8 mph N/A   Clear
5:56 PM 41.0 °F 33.5 °F 24.1 °F 51% 30.08 in 10.0 mi WSW 13.8 mph - N/A   Clear
6:56 PM 39.9 °F 31.4 °F 26.1 °F 58% 30.09 in 10.0 mi WSW 16.1 mph - N/A   Clear
7:56 PM 39.0 °F 28.8 °F 26.1 °F 60% 30.09 in 10.0 mi West 21.9 mph - N/A   Clear
8:56 PM 39.0 °F 29.0 °F 27.0 °F 62% 30.07 in 10.0 mi West 20.7 mph - N/A   Clear
9:56 PM 37.9 °F 28.9 °F 27.0 °F 65% 30.06 in 10.0 mi WSW 16.1 mph - N/A   Clear
10:56 PM 39.9 °F 30.8 °F 28.0 °F 63% 30.06 in 10.0 mi West 18.4 mph - N/A   Clear
11:56 PM 39.0 °F 30.3 °F 28.9 °F 67% 30.05 in 10.0 mi West 16.1 mph - N/A   Clear